UB3APB-WY Weather Reports


Display with metric or nautical units.
time (UTC)temp
F
wind
direction
speed
MPH
gust
MPH
rain 1hr
in
rain 24hr
in
rain mn
in
humidity
%
barometer
mb
20260507113024 68 0 0.0 0.0 0.00 0.00 0.00 56
20260507112519 69 0 0.0 0.0 0.00 0.00 0.00 56
20260507112013 69 0 0.0 0.0 0.00 0.00 0.00 56
20260507111509 68 0 0.0 0.0 0.00 0.00 0.00 55
20260507111002 68 0 0.0 0.0 0.00 0.00 0.00 53
20260507110457 68 0 0.0 0.0 0.00 0.00 0.00 56
20260507105951 70 0 0.0 0.0 0.00 0.00 0.00 56
20260507105445 70 0 0.0 0.0 0.00 0.00 0.00 53
20260507104940 69 0 0.0 0.0 0.00 0.00 0.00 54
20260507104434 69 0 0.0 0.0 0.00 0.00 0.00 57
20260507103928 69 0 0.0 0.0 0.00 0.00 0.00 59
20260507103422 70 0 0.0 0.0 0.00 0.00 0.00 56
20260507102916 68 0 0.0 0.0 0.00 0.00 0.00 61
20260507102410 69 0 0.0 0.0 0.00 0.00 0.00 60
20260507101905 69 0 0.0 0.0 0.00 0.00 0.00 57
20260507101358 69 0 0.0 0.0 0.00 0.00 0.00 60
20260507100853 68 0 0.0 0.0 0.00 0.00 0.00 60
20260507100132 32 0 0.0 0.0 0.00 0.00 0.00 100
20260507095541 68 0 0.0 0.0 0.00 0.00 0.00 63
20260507095035 69 0 0.0 0.0 0.00 0.00 0.00 61
20260507094530 68 0 0.0 0.0 0.00 0.00 0.00 62
20260507094009 66 0 0.0 0.0 0.00 0.00 0.00 65
20260507093448 67 0 0.0 0.0 0.00 0.00 0.00 64
20260507092943 68 0 0.0 0.0 0.00 0.00 0.00 65
20260507092437 67 0 0.0 0.0 0.00 0.00 0.00 64
20260507091931 66 0 0.0 0.0 0.00 0.00 0.00 67
20260507091425 65 0 0.0 0.0 0.00 0.00 0.00 66
20260507090904 66 0 0.0 0.0 0.00 0.00 0.00 67
20260507090343 66 0 0.0 0.0 0.00 0.00 0.00 68
20260507085837 66 0 0.0 0.0 0.00 0.00 0.00 65
20260507085317 66 0 0.0 0.0 0.00 0.00 0.00 66
20260507084741 66 0 0.0 0.0 0.00 0.00 0.00 67
20260507084220 65 0 0.0 0.0 0.00 0.00 0.00 66
20260507083714 66 0 0.0 0.0 0.00 0.00 0.00 66
20260507083209 66 0 0.0 0.0 0.00 0.00 0.00 65
20260507082647 64 0 0.0 0.0 0.00 0.00 0.00 66
20260507082126 66 0 0.0 0.0 0.00 0.00 0.00 64
20260507081620 65 0 0.0 0.0 0.00 0.00 0.00 67
20260507081100 64 0 0.0 0.0 0.00 0.00 0.00 68
20260507080539 64 0 0.0 0.0 0.00 0.00 0.00 68
20260507080033 67 0 0.0 0.0 0.00 0.00 0.00 69
20260507075528 66 0 0.0 0.0 0.00 0.00 0.00 68
20260507075021 65 0 0.0 0.0 0.00 0.00 0.00 71
20260507074516 64 0 0.0 0.0 0.00 0.00 0.00 69
20260507074010 63 0 0.0 0.0 0.00 0.00 0.00 70
20260507073448 63 0 0.0 0.0 0.00 0.00 0.00 69
20260507072927 63 0 0.0 0.0 0.00 0.00 0.00 68
20260507072421 63 0 0.0 0.0 0.00 0.00 0.00 71
20260507071916 63 0 0.0 0.0 0.00 0.00 0.00 68
20260507071410 63 0 0.0 0.0 0.00 0.00 0.00 71
20260507064958 32 0 0.0 0.0 0.00 0.00 0.00 100
20260507064152 32 0 0.0 0.0 0.00 0.00 0.00 100
20260507063330 32 0 0.0 0.0 0.00 0.00 0.00 100
20260507062524 32 0 0.0 0.0 0.00 0.00 0.00 100
20260507061717 32 0 0.0 0.0 0.00 0.00 0.00 100
20260507061111 61 0 0.0 0.0 0.00 0.00 0.00 75
20260507060605 61 0 0.0 0.0 0.00 0.00 0.00 75
20260507060059 61 0 0.0 0.0 0.00 0.00 0.00 75
20260507055553 60 0 0.0 0.0 0.00 0.00 0.00 75
20260507055032 60 0 0.0 0.0 0.00 0.00 0.00 75
20260507054511 60 0 0.0 0.0 0.00 0.00 0.00 75
20260507054005 60 0 0.0 0.0 0.00 0.00 0.00 75
20260507053459 60 0 0.0 0.0 0.00 0.00 0.00 76
20260507052953 60 0 0.0 0.0 0.00 0.00 0.00 78
20260507052433 59 0 0.0 0.0 0.00 0.00 0.00 78
20260507051913 59 0 0.0 0.0 0.00 0.00 0.00 77
20260507051407 59 0 0.0 0.0 0.00 0.00 0.00 78
20260507050901 59 0 0.0 0.0 0.00 0.00 0.00 79
20260507050355 59 0 0.0 0.0 0.00 0.00 0.00 79
20260507045850 58 0 0.0 0.0 0.00 0.00 0.00 82
20260507045344 58 0 0.0 0.0 0.00 0.00 0.00 82
20260507044838 58 0 0.0 0.0 0.00 0.00 0.00 82
20260507044332 58 0 0.0 0.0 0.00 0.00 0.00 82
20260507043825 58 0 0.0 0.0 0.00 0.00 0.00 85
20260507043319 57 0 0.0 0.0 0.00 0.00 0.00 85
20260507042814 56 0 0.0 0.0 0.00 0.00 0.00 88
20260507042308 55 0 0.0 0.0 0.00 0.00 0.00 89
20260507041747 56 0 0.0 0.0 0.00 0.00 0.00 89
20260507041226 56 0 0.0 0.0 0.00 0.00 0.00 89
20260507040721 55 0 0.0 0.0 0.00 0.00 0.00 89
20260507040216 55 0 0.0 0.0 0.00 0.00 0.00 89
20260507035655 54 0 0.0 0.0 0.00 0.00 0.00 90
20260507035134 55 0 0.0 0.0 0.00 0.00 0.00 91
20260507034628 54 0 0.0 0.0 0.00 0.00 0.00 92
20260507034122 54 0 0.0 0.0 0.00 0.00 0.00 92
20260507033616 54 0 0.0 0.0 0.00 0.00 0.00 92
20260507033110 54 0 0.0 0.0 0.00 0.00 0.00 93
20260507032550 54 0 0.0 0.0 0.00 0.00 0.00 93
20260507032029 53 0 0.0 0.0 0.00 0.00 0.00 93
20260507031523 53 0 0.0 0.0 0.00 0.00 0.00 93
20260507031017 53 0 0.0 0.0 0.00 0.00 0.00 93
20260507030509 53 0 0.0 0.0 0.00 0.00 0.00 94
20260507030004 53 0 0.0 0.0 0.00 0.00 0.00 94
20260507025458 53 0 0.0 0.0 0.00 0.00 0.00 94
20260507024952 53 0 0.0 0.0 0.00 0.00 0.00 94
20260507024446 53 0 0.0 0.0 0.00 0.00 0.00 94
20260507023941 53 0 0.0 0.0 0.00 0.00 0.00 94
20260507023435 53 0 0.0 0.0 0.00 0.00 0.00 94
20260507022914 53 0 0.0 0.0 0.00 0.00 0.00 94
20260507022353 52 0 0.0 0.0 0.00 0.00 0.00 95
20260507021848 52 0 0.0 0.0 0.00 0.00 0.00 95
20260507021341 52 0 0.0 0.0 0.00 0.00 0.00 95
20260507020820 52 0 0.0 0.0 0.00 0.00 0.00 95
20260507020259 52 0 0.0 0.0 0.00 0.00 0.00 95
20260507015753 52 0 0.0 0.0 0.00 0.00 0.00 95
20260507015247 52 0 0.0 0.0 0.00 0.00 0.00 95
20260507014726 53 0 0.0 0.0 0.00 0.00 0.00 94
20260507014205 53 0 0.0 0.0 0.00 0.00 0.00 94
20260507013659 53 0 0.0 0.0 0.00 0.00 0.00 94
20260507013154 53 0 0.0 0.0 0.00 0.00 0.00 94
20260507012633 53 0 0.0 0.0 0.00 0.00 0.00 95
20260507012112 53 0 0.0 0.0 0.00 0.00 0.00 94
20260507011606 53 0 0.0 0.0 0.00 0.00 0.00 94
20260507011101 53 0 0.0 0.0 0.00 0.00 0.00 94
20260507010555 53 0 0.0 0.0 0.00 0.00 0.00 94
20260507010049 53 0 0.0 0.0 0.00 0.00 0.00 94
20260507005543 53 0 0.0 0.0 0.00 0.00 0.00 94
20260507005037 53 0 0.0 0.0 0.00 0.00 0.00 95
20260507004532 53 0 0.0 0.0 0.00 0.00 0.00 94
20260507004011 53 0 0.0 0.0 0.00 0.00 0.00 94
20260507003450 53 0 0.0 0.0 0.00 0.00 0.00 94
20260507002944 53 0 0.0 0.0 0.00 0.00 0.00 94
20260507002438 53 0 0.0 0.0 0.00 0.00 0.00 94
20260507001917 53 0 0.0 0.0 0.00 0.00 0.00 94
20260507001357 53 0 0.0 0.0 0.00 0.00 0.00 94
20260507000850 53 0 0.0 0.0 0.00 0.00 0.00 94
20260507000344 53 0 0.0 0.0 0.00 0.00 0.00 95
20260506235838 53 0 0.0 0.0 0.00 0.00 0.00 95
20260506235332 53 0 0.0 0.0 0.00 0.00 0.00 95
20260506234811 53 0 0.0 0.0 0.00 0.00 0.00 95
20260506234250 53 0 0.0 0.0 0.00 0.00 0.00 95
20260506233744 53 0 0.0 0.0 0.00 0.00 0.00 95
20260506233224 53 0 0.0 0.0 0.00 0.00 0.00 95
20260506232703 52 0 0.0 0.0 0.00 0.00 0.00 95
20260506232157 52 0 0.0 0.0 0.00 0.00 0.00 95
20260506231651 52 0 0.0 0.0 0.00 0.00 0.00 95
20260506231145 52 0 0.0 0.0 0.00 0.00 0.00 95
20260506230639 52 0 0.0 0.0 0.00 0.00 0.00 96
20260506230133 52 0 0.0 0.0 0.00 0.00 0.00 96
20260506225627 52 0 0.0 0.0 0.00 0.00 0.00 96
20260506225121 52 0 0.0 0.0 0.00 0.00 0.00 96
20260506224616 52 0 0.0 0.0 0.00 0.00 0.00 96
20260506224110 51 0 0.0 0.0 0.00 0.00 0.00 97
20260506223604 50 0 0.0 0.0 0.00 0.00 0.00 98
20260506223044 50 0 0.0 0.0 0.00 0.00 0.00 98
20260506222523 50 0 0.0 0.0 0.00 0.00 0.00 97
20260506222002 50 0 0.0 0.0 0.00 0.00 0.00 97
20260506221441 50 0 0.0 0.0 0.00 0.00 0.00 97
20260506220936 51 0 0.0 0.0 0.00 0.00 0.00 96
20260506220429 51 0 0.0 0.0 0.00 0.00 0.00 96
20260506215923 52 0 0.0 0.0 0.00 0.00 0.00 96
20260506215402 51 0 0.0 0.0 0.00 0.00 0.00 96
20260506214841 52 0 0.0 0.0 0.00 0.00 0.00 96
20260506214335 51 0 0.0 0.0 0.00 0.00 0.00 96
20260506213829 51 0 0.0 0.0 0.00 0.00 0.00 96
20260506213323 51 0 0.0 0.0 0.00 0.00 0.00 96
20260506212817 51 0 0.0 0.0 0.00 0.00 0.00 96
20260506212311 51 0 0.0 0.0 0.00 0.00 0.00 96
20260506211805 51 0 0.0 0.0 0.00 0.00 0.00 95
20260506211259 52 0 0.0 0.0 0.00 0.00 0.00 95
20260506210753 51 0 0.0 0.0 0.00 0.00 0.00 96
20260506210247 51 0 0.0 0.0 0.00 0.00 0.00 96
20260506205741 51 0 0.0 0.0 0.00 0.00 0.00 95
20260506205236 51 0 0.0 0.0 0.00 0.00 0.00 95
20260506204730 51 0 0.0 0.0 0.00 0.00 0.00 95
20260506204224 52 0 0.0 0.0 0.00 0.00 0.00 95
20260506203719 51 0 0.0 0.0 0.00 0.00 0.00 95
20260506203158 52 0 0.0 0.0 0.00 0.00 0.00 94
20260506202637 52 0 0.0 0.0 0.00 0.00 0.00 94
20260506202131 52 0 0.0 0.0 0.00 0.00 0.00 94
20260506201625 52 0 0.0 0.0 0.00 0.00 0.00 93
20260506201119 53 0 0.0 0.0 0.00 0.00 0.00 93
20260506200559 53 0 0.0 0.0 0.00 0.00 0.00 92
20260506200037 54 0 0.0 0.0 0.00 0.00 0.00 90
20260506195531 54 0 0.0 0.0 0.00 0.00 0.00 90
20260506195025 54 0 0.0 0.0 0.00 0.00 0.00 90
20260506194518 54 0 0.0 0.0 0.00 0.00 0.00 89
20260506194012 54 0 0.0 0.0 0.00 0.00 0.00 90
20260506193507 55 0 0.0 0.0 0.00 0.00 0.00 89
20260506192946 55 0 0.0 0.0 0.00 0.00 0.00 88
20260506192425 55 0 0.0 0.0 0.00 0.00 0.00 89
20260506191919 55 0 0.0 0.0 0.00 0.00 0.00 89
20260506191414 55 0 0.0 0.0 0.00 0.00 0.00 89
20260506190908 55 0 0.0 0.0 0.00 0.00 0.00 89
20260506190400 55 0 0.0 0.0 0.00 0.00 0.00 88
20260506185851 55 0 0.0 0.0 0.00 0.00 0.00 87
20260506185344 56 0 0.0 0.0 0.00 0.00 0.00 86
20260506184839 56 0 0.0 0.0 0.00 0.00 0.00 86
20260506184333 56 0 0.0 0.0 0.00 0.00 0.00 86
20260506183827 56 0 0.0 0.0 0.00 0.00 0.00 86
20260506183320 56 0 0.0 0.0 0.00 0.00 0.00 87
20260506182814 56 0 0.0 0.0 0.00 0.00 0.00 86
20260506182254 56 0 0.0 0.0 0.00 0.00 0.00 85
20260506181733 56 0 0.0 0.0 0.00 0.00 0.00 86
20260506181226 56 0 0.0 0.0 0.00 0.00 0.00 86
20260506180720 56 0 0.0 0.0 0.00 0.00 0.00 85
20260506180159 56 0 0.0 0.0 0.00 0.00 0.00 84
20260506175638 56 0 0.0 0.0 0.00 0.00 0.00 84
20260506175131 56 0 0.0 0.0 0.00 0.00 0.00 84
20260506174625 56 0 0.0 0.0 0.00 0.00 0.00 83
20260506174120 56 0 0.0 0.0 0.00 0.00 0.00 84
20260506173614 56 0 0.0 0.0 0.00 0.00 0.00 85
20260506173108 56 0 0.0 0.0 0.00 0.00 0.00 84
20260506172602 57 0 0.0 0.0 0.00 0.00 0.00 84
20260506172055 57 0 0.0 0.0 0.00 0.00 0.00 84
20260506171534 57 0 0.0 0.0 0.00 0.00 0.00 84
20260506171013 57 0 0.0 0.0 0.00 0.00 0.00 83
20260506170507 56 0 0.0 0.0 0.00 0.00 0.00 82
20260506170001 56 0 0.0 0.0 0.00 0.00 0.00 81
20260506165440 56 0 0.0 0.0 0.00 0.00 0.00 81
20260506164919 56 0 0.0 0.0 0.00 0.00 0.00 81
20260506164414 56 0 0.0 0.0 0.00 0.00 0.00 80
20260506163853 56 0 0.0 0.0 0.00 0.00 0.00 78
20260506163332 56 0 0.0 0.0 0.00 0.00 0.00 76
20260506162826 56 0 0.0 0.0 0.00 0.00 0.00 76
20260506162320 57 0 0.0 0.0 0.00 0.00 0.00 77
20260506161759 57 0 0.0 0.0 0.00 0.00 0.00 73
20260506161238 58 0 0.0 0.0 0.00 0.00 0.00 72
20260506160732 58 0 0.0 0.0 0.00 0.00 0.00 72
20260506160226 59 0 0.0 0.0 0.00 0.00 0.00 72
20260506155721 58 0 0.0 0.0 0.00 0.00 0.00 74
20260506155159 59 0 0.0 0.0 0.00 0.00 0.00 73
20260506154637 59 0 0.0 0.0 0.00 0.00 0.00 69
20260506154132 60 0 0.0 0.0 0.00 0.00 0.00 68
20260506153626 61 0 0.0 0.0 0.00 0.00 0.00 64
20260506153121 61 0 0.0 0.0 0.00 0.00 0.00 63
20260506152614 61 0 0.0 0.0 0.00 0.00 0.00 61
20260506152052 62 0 0.0 0.0 0.00 0.00 0.00 61
20260506151531 62 0 0.0 0.0 0.00 0.00 0.00 60
20260506151010 63 0 0.0 0.0 0.00 0.00 0.00 58
20260506150449 64 0 0.0 0.0 0.00 0.00 0.00 53
20260506145943 65 0 0.0 0.0 0.00 0.00 0.00 51
20260506145438 66 0 0.0 0.0 0.00 0.00 0.00 49
20260506144932 65 0 0.0 0.0 0.00 0.00 0.00 48
20260506144411 65 0 0.0 0.0 0.00 0.00 0.00 50
20260506143850 65 0 0.0 0.0 0.00 0.00 0.00 49
20260506143344 64 0 0.0 0.0 0.00 0.00 0.00 49
20260506142838 64 0 0.0 0.0 0.00 0.00 0.00 47
20260506142333 65 0 0.0 0.0 0.00 0.00 0.00 49
20260506141827 65 0 0.0 0.0 0.00 0.00 0.00 50
20260506141321 65 0 0.0 0.0 0.00 0.00 0.00 48
20260506140815 65 0 0.0 0.0 0.00 0.00 0.00 48
20260506140310 65 0 0.0 0.0 0.00 0.00 0.00 49
20260506135749 65 0 0.0 0.0 0.00 0.00 0.00 50
20260506135721 32 0 0.0 0.0 0.00 0.00 0.00 100
20260506135126 65 0 0.0 0.0 0.00 0.00 0.00 49